SCP
0 0 0 -0 0 -0 0 0 0 -0 0 -0 0 0 0 0 -0 0 -0 -0 -0 -0 -0 -0 0 0 0 0 0 0 0 0 -0 0 0 0 0 0
0 0 0 0 0 -0 -0 0 0 0 0 0 0 0 0 0 0 0 0 -0 -0 -0 -0 0 0 0 0 0 0 0 0 0 0 0 0 0 0 0
-0 0 0 0 0 0 0 0 0 0 0 0 0 0 0 0 0 0 0 0 0 -0 -0 -0 0 -0 0 0 0 0 0 0 0 0 0 0 0 0
0 0 -0 0 0 0 0 0 0 0 0 0 0 0 0 0 0 0 0 0 0 0 -0 -0 0 0 0 0 0 0 0 0 0 0 0 0 0 0
0 0 0 0 0 0 0 0 0 0 0 0 0 0 0 0 0 0 0 0 0 0 -0 -0 -0 0 0 0 -0 0 0 0 0 0 0 0 0 0
0 0 0 0 0 0 0 0 0 0 0 0 0 0 0 0 0 0 0 0 0 0 0 0 0 0 0 0 0 0 0 0 0 0 0 0 0 0
0 0 0 0 0 0 0 0 0 0 0 0 0 0 0 0 0 0 0 0 0 0 0 0 0 0 0 0 0 0 0 0 0 0 0 0 0 0
0 0 0 0 0 0 0 0 0 0 0 0 0 0 0 0 0 0 0 0 0 0 0 0 0 0 0 0 0 0 0 0 0 0 0 0 0 0
0 0 0 0 0 0 0 0 0 0 0 0 0 0 0 0 0 0 0 0 0 0 0 0 0 0 0 0 0 0 0 0 0 0 0 0 0 0
0 0 0 0 0 0 0 0 0 0 0 0 0 0 0 0 0 0 0 0 0 0 0 0 0 0 0 0 0 0 0 0 0 0 0 0 0 0
0 0 0 0 0 0 0 0 0 0 0 0 0 0 0 0 0 0 0 0 0 0 0 0 0 0 0 0 0 0 0 0 0 0 0 0 0 0
0 0 0 0 0 0 0 0 0 0 0 0 0 0 0 0 0 0 0 0 0 0 0 0 0 0 0 0 0 0 0 0 0 0 0 0 0 0
0 0 0 0 0 0 0 0 0 0 0 0 0 0 0 0 0 0 0 0 0 0 0 0 0 0 0 0 0 0 0 0 0 0 0 0 0 0
0 0 0 0 0 0 0 0 0 0 0 0 0 0 0 0 0 0 0 0 0 0 0 0 0 0 0 0 0 0 0 0 0 0 0 0 0 0
0 0 0 0 0 0 0 0 0 0 0 0 0 0 0 0 0 0 0 0 0 0 0 0 0 0 0 0 0 0 0 0 0 0 0 0 0 0
0 0 0 0 0 0 0 0 0 0 0 0 0 0 0 0 0 0 0 0 0 0 0 0 0 0 0 0 0 0 0 0 0 0 0 0 -0 0
0 0 0 0 0 0 0 0 0 0 0 0 0 0 0 0 0 0 0 0 0 0 0 0 0 0 0 0 0 0 0 0 0 0 0 -0 -0 -0
0 0 0 0 0 0 0 0 0 0 0 0 0 0 0 0 0 0 0 0 0 0 0 0 0 0 0 0 0 0 0 0 0 0 -0 -0 -0 -0
0 0 0 0 0 0 0 0 0 0 0 0 0 0 0 0 0 0 0 0 0 0 0 0 0 0 0 0 0 0 0 0 0 0 -0 -0 0 -0
0 0 0 0 0 0 0 0 0 0 0 0 0 0 0 0 0 0 0 0 0 0 0 0 0 0 0 0 0 0 0 0 0 0 0 0 0 0
-0 0 0 0 0 0 0 0 0 0 0 0 0 0 0 0 0 0 0 0 0 0 0 0 0 0 0 0 0 0 0 0 0 0 0 0 0 0
-0 -0 -0 -0 0 0 0 0 0 0 0 0 0 0 0 0 0 0 0 0 0 0 0 0 0 0 0 0 0 0 0 -0 -0 0 0 0 0 0
-0 -0 -0 -0 -0 -0 -0 -0 0 0 0 0 0 0 0 0 0 0 0 0 0 0 0 0 0 0 0 0 0 0 0 0 0 0 0 0 0 0
Wind_Speed_500mb
16 15 18 18 22 18 16 18 24 17 36 32 22 35 32 34 28 23 18 14 9 5 8 5 4 5 7 8 9 11 16 21 23 21 24 28 27 27
18 16 15 17 21 27 15 17 24 29 16 25 33 24 33 41 29 17 18 16 14 9 7 7 7 8 9 10 12 13 14 15 20 20 20 22 24 24
26 23 20 22 20 28 29 25 17 22 31 22 34 38 30 29 33 24 24 21 21 16 12 8 9 13 14 13 14 15 16 17 19 21 22 23 23 22
27 29 27 24 27 26 27 26 23 25 29 37 33 32 38 18 22 31 29 28 27 27 23 17 15 15 17 19 18 17 17 19 21 22 23 23 22 21
27 30 29 27 30 31 33 29 29 28 30 29 39 37 39 30 29 33 29 32 33 33 32 28 23 18 16 21 22 22 23 23 24 24 25 25 25 26
33 32 32 30 32 29 29 30 29 30 38 33 34 31 39 33 36 38 38 38 37 39 41 36 28 23 20 23 24 25 27 28 28 27 27 27 28 28
44 42 40 39 36 34 32 32 31 34 35 42 39 41 39 37 39 40 46 38 33 36 39 38 35 31 25 27 30 30 31 33 34 33 32 30 27 28
43 43 44 42 44 42 40 39 39 37 36 33 38 43 41 36 32 36 52 49 50 48 39 37 35 35 31 29 29 29 29 32 34 36 35 31 29 29
47 50 48 46 43 44 46 46 48 43 41 40 36 45 48 47 47 49 57 52 50 43 33 36 33 34 33 33 31 30 30 31 33 34 33 31 31 36
53 52 54 56 51 50 46 47 48 50 49 47 44 43 44 46 49 45 39 48 54 49 46 43 37 39 36 34 30 28 29 30 29 29 34 35 38 37
62 59 57 57 58 51 51 52 52 53 48 48 48 44 44 48 49 49 56 53 56 57 54 53 50 45 42 40 35 29 24 23 31 39 45 49 41 41
61 59 53 54 55 53 54 53 59 60 51 54 51 46 44 42 53 61 63 63 60 58 60 59 59 55 50 48 42 35 31 34 37 41 43 46 47 47
56 56 52 47 48 47 50 52 55 53 60 59 54 53 52 54 56 53 62 67 67 63 55 52 58 63 61 38 57 53 46 48 51 51 47 46 44 42
54 57 54 54 53 48 45 45 48 48 48 53 59 62 60 60 59 59 58 59 63 59 52 49 52 56 70 71 52 64 61 60 60 56 53 48 46 46
54 47 54 51 49 50 51 51 54 48 53 55 58 58 57 58 58 55 53 59 67 63 53 55 57 53 60 75 76 68 76 73 65 61 61 59 59 58
50 52 52 53 53 54 55 57 53 52 50 47 50 52 51 53 59 55 55 55 60 58 44 55 63 62 66 73 80 80 77 75 71 70 64 59 61 57
48 41 47 47 46 44 48 48 51 56 58 58 58 59 56 54 57 57 56 59 60 57 62 68 76 74 81 77 82 71 67 73 69 71 65 65 61 56
38 37 33 37 40 43 43 49 48 47 50 51 50 48 54 54 54 57 58 62 65 66 70 77 79 60 56 42 39 52 58 68 60 68 70 64 59 63
23 30 35 36 36 32 35 36 40 41 38 38 35 45 48 50 50 54 54 55 69 71 68 66 70 67 57 61 47 43 61 69 53 67 56 61 62 57
16 20 23 26 26 29 31 34 35 35 34 37 40 39 38 43 44 48 49 52 55 61 73 67 64 63 68 67 43 55 51 50 49 55 57 54 47 42
23 12 17 16 20 22 25 26 29 29 30 31 31 32 33 35 36 36 38 43 51 57 56 53 51 50 48 38 33 42 49 46 41 47 50 52 53 50
40 37 34 22 9 8 12 16 15 17 20 22 23 23 20 17 15 17 20 22 27 31 34 39 47 45 32 29 26 28 42 49 46 41 31 30 51 63
28 30 35 34 36 36 30 18 10 5 7 9 13 15 12 7 2 9 15 19 30 40 51 42 40 36 29 23 23 28 43 40 41 49 46 46 43 40
Wind_Direction_500mb
240 225 233 245 231 258 257 237 246 272 221 217 223 232 224 236 249 250 230 240 258 247 234 228 224 220 221 210 201 199 212 215 209 216 213 213 205 216
258 266 245 238 243 241 265 238 240 257 256 224 222 238 231 244 241 246 220 227 228 218 224 239 245 248 234 220 209 204 205 196 200 203 203 208 212 217
258 263 259 251 245 242 245 245 247 262 248 230 237 240 231 237 232 238 218 220 225 234 240 250 255 252 244 232 222 215 208 210 211 209 209 212 214 215
263 262 262 257 246 247 245 253 262 257 242 244 243 225 215 243 237 235 233 227 230 243 254 259 263 266 253 236 227 224 220 216 217 216 216 217 219 217
262 266 272 262 258 248 247 241 244 247 244 242 227 237 229 244 235 236 239 234 237 245 251 254 257 265 245 231 230 226 225 224 223 222 221 219 214 208
267 266 268 268 268 265 255 248 247 253 246 239 236 236 236 239 241 245 239 239 238 246 247 250 250 254 249 230 229 231 229 228 226 225 222 221 217 211
266 268 268 269 270 267 261 246 243 253 252 243 240 226 230 234 245 252 245 248 242 245 246 248 244 247 247 240 238 238 237 234 231 227 223 221 220 215
270 268 266 267 264 262 261 256 249 246 249 250 237 238 245 239 232 244 242 231 228 246 248 251 247 242 245 245 244 241 235 230 227 225 223 217 217 228
279 272 269 262 261 258 256 259 256 252 247 252 250 243 244 248 244 245 239 238 243 254 247 247 250 252 251 244 243 241 237 231 229 225 218 218 200 198
273 273 272 267 262 259 258 260 260 252 249 255 257 251 250 250 252 257 263 247 245 246 243 243 247 246 249 252 242 242 245 238 230 213 201 198 194 192
270 269 269 269 263 260 262 259 258 257 257 255 257 257 249 247 250 248 242 240 239 243 238 240 243 240 241 244 237 242 241 215 191 186 186 189 199 183
268 267 267 268 265 264 260 258 255 252 256 259 259 257 252 251 253 250 251 248 247 244 242 233 238 233 228 230 227 220 213 197 187 187 190 188 185 186
266 266 263 265 265 264 262 254 253 258 256 256 258 259 258 256 256 254 253 254 256 255 249 241 240 233 225 227 223 217 210 208 198 191 193 196 196 200
267 264 267 262 261 266 264 262 258 254 253 252 252 255 256 257 262 264 265 259 254 254 257 257 256 246 235 230 218 220 215 213 210 205 200 196 185 179
262 260 263 264 258 257 263 265 261 264 259 256 250 253 258 266 267 263 263 263 252 247 243 251 254 251 248 241 237 227 214 210 207 203 194 182 178 176
259 256 257 263 264 261 258 263 265 267 262 261 257 261 264 263 263 262 263 265 271 237 258 260 251 245 248 241 238 231 219 202 197 192 185 178 182 185
258 261 258 260 260 255 256 259 263 261 265 260 262 263 263 260 258 260 260 261 265 261 262 261 259 242 241 238 230 229 220 204 199 187 176 183 189 190
256 257 264 260 266 260 257 260 259 262 256 260 260 257 256 256 255 257 258 261 263 266 268 259 249 233 225 229 219 227 206 199 196 186 180 186 194 198
267 265 267 266 262 260 260 258 260 259 258 262 266 252 255 254 259 265 268 268 261 260 248 264 242 228 204 196 203 197 193 193 188 188 189 195 201 202
297 287 279 277 270 264 264 265 263 260 259 254 257 257 259 257 258 259 262 264 268 265 249 249 239 215 201 183 179 174 184 191 185 188 196 200 207 208
28 347 309 289 280 272 270 264 258 257 259 259 256 257 257 256 257 258 262 263 264 256 245 234 215 188 181 166 163 168 179 188 203 199 196 201 203 204
38 43 54 53 15 297 289 287 278 264 258 256 260 261 259 257 259 264 264 261 244 236 222 186 165 163 167 158 154 174 181 183 188 201 217 228 216 214
36 38 49 54 59 64 67 75 87 126 142 132 122 115 108 98 175 201 180 170 162 148 146 151 153 161 175 175 173 185 189 190 201 209 217 223 236 246
Wind_Speed_850mb
16 15 18 18 22 18 16 18 24 17 36 32 22 35 32 34 28 23 18 14 9 5 8 5 4 5 7 8 9 11 16 21 23 21 24 28 27 27
18 16 15 17 21 27 15 17 24 29 16 25 33 24 33 41 29 17 18 16 14 9 7 7 7 8 9 10 12 13 14 15 20 20 20 22 24 24
26 23 20 22 20 28 29 25 17 22 31 22 34 38 30 29 33 24 24 21 21 16 12 8 9 13 14 13 14 15 16 17 19 21 22 23 23 22
27 29 27 24 27 26 27 26 23 25 29 37 33 32 38 18 22 31 29 28 27 27 23 17 15 15 17 19 18 17 17 19 21 22 23 23 22 21
27 30 29 27 30 31 33 29 29 28 30 29 39 37 39 30 29 33 29 32 33 33 32 28 23 18 16 21 22 22 23 23 24 24 25 25 25 26
33 32 32 30 32 29 29 30 29 30 38 33 34 31 39 33 36 38 38 38 37 39 41 36 28 23 20 23 24 25 27 28 28 27 27 27 28 28
44 42 40 39 36 34 32 32 31 34 35 42 39 41 39 37 39 40 46 38 33 36 39 38 35 31 25 27 30 30 31 33 34 33 32 30 27 28
43 43 44 42 44 42 40 39 39 37 36 33 38 43 41 36 32 36 52 49 50 48 39 37 35 35 31 29 29 29 29 32 34 36 35 31 29 29
47 50 48 46 43 44 46 46 48 43 41 40 36 45 48 47 47 49 57 52 50 43 33 36 33 34 33 33 31 30 30 31 33 34 33 31 31 36
53 52 54 56 51 50 46 47 48 50 49 47 44 43 44 46 49 45 39 48 54 49 46 43 37 39 36 34 30 28 29 30 29 29 34 35 38 37
62 59 57 57 58 51 51 52 52 53 48 48 48 44 44 48 49 49 56 53 56 57 54 53 50 45 42 40 35 29 24 23 31 39 45 49 41 41
61 59 53 54 55 53 54 53 59 60 51 54 51 46 44 42 53 61 63 63 60 58 60 59 59 55 50 48 42 35 31 34 37 41 43 46 47 47
56 56 52 47 48 47 50 52 55 53 60 59 54 53 52 54 56 53 62 67 67 63 55 52 58 63 61 38 57 53 46 48 51 51 47 46 44 42
54 57 54 54 53 48 45 45 48 48 48 53 59 62 60 60 59 59 58 59 63 59 52 49 52 56 70 71 52 64 61 60 60 56 53 48 46 46
54 47 54 51 49 50 51 51 54 48 53 55 58 58 57 58 58 55 53 59 67 63 53 55 57 53 60 75 76 68 76 73 65 61 61 59 59 58
50 52 52 53 53 54 55 57 53 52 50 47 50 52 51 53 59 55 55 55 60 58 44 55 63 62 66 73 80 80 77 75 71 70 64 59 61 57
48 41 47 47 46 44 48 48 51 56 58 58 58 59 56 54 57 57 56 59 60 57 62 68 76 74 81 77 82 71 67 73 69 71 65 65 61 56
38 37 33 37 40 43 43 49 48 47 50 51 50 48 54 54 54 57 58 62 65 66 70 77 79 60 56 42 39 52 58 68 60 68 70 64 59 63
23 30 35 36 36 32 35 36 40 41 38 38 35 45 48 50 50 54 54 55 69 71 68 66 70 67 57 61 47 43 61 69 53 67 56 61 62 57
16 20 23 26 26 29 31 34 35 35 34 37 40 39 38 43 44 48 49 52 55 61 73 67 64 63 68 67 43 55 51 50 49 55 57 54 47 42
23 12 17 16 20 22 25 26 29 29 30 31 31 32 33 35 36 36 38 43 51 57 56 53 51 50 48 38 33 42 49 46 41 47 50 52 53 50
40 37 34 22 9 8 12 16 15 17 20 22 23 23 20 17 15 17 20 22 27 31 34 39 47 45 32 29 26 28 42 49 46 41 31 30 51 63
28 30 35 34 36 36 30 18 10 5 7 9 13 15 12 7 2 9 15 19 30 40 51 42 40 36 29 23 23 28 43 40 41 49 46 46 43 40
Wind_Direction_850mb
240 225 233 245 231 258 257 237 246 272 221 217 223 232 224 236 249 250 230 240 258 247 234 228 224 220 221 210 201 199 212 215 209 216 213 213 205 216
258 266 245 238 243 241 265 238 240 257 256 224 222 238 231 244 241 246 220 227 228 218 224 239 245 248 234 220 209 204 205 196 200 203 203 208 212 217
258 263 259 251 245 242 245 245 247 262 248 230 237 240 231 237 232 238 218 220 225 234 240 250 255 252 244 232 222 215 208 210 211 209 209 212 214 215
263 262 262 257 246 247 245 253 262 257 242 244 243 225 215 243 237 235 233 227 230 243 254 259 263 266 253 236 227 224 220 216 217 216 216 217 219 217
262 266 272 262 258 248 247 241 244 247 244 242 227 237 229 244 235 236 239 234 237 245 251 254 257 265 245 231 230 226 225 224 223 222 221 219 214 208
267 266 268 268 268 265 255 248 247 253 246 239 236 236 236 239 241 245 239 239 238 246 247 250 250 254 249 230 229 231 229 228 226 225 222 221 217 211
266 268 268 269 270 267 261 246 243 253 252 243 240 226 230 234 245 252 245 248 242 245 246 248 244 247 247 240 238 238 237 234 231 227 223 221 220 215
270 268 266 267 264 262 261 256 249 246 249 250 237 238 245 239 232 244 242 231 228 246 248 251 247 242 245 245 244 241 235 230 227 225 223 217 217 228
279 272 269 262 261 258 256 259 256 252 247 252 250 243 244 248 244 245 239 238 243 254 247 247 250 252 251 244 243 241 237 231 229 225 218 218 200 198
273 273 272 267 262 259 258 260 260 252 249 255 257 251 250 250 252 257 263 247 245 246 243 243 247 246 249 252 242 242 245 238 230 213 201 198 194 192
270 269 269 269 263 260 262 259 258 257 257 255 257 257 249 247 250 248 242 240 239 243 238 240 243 240 241 244 237 242 241 215 191 186 186 189 199 183
268 267 267 268 265 264 260 258 255 252 256 259 259 257 252 251 253 250 251 248 247 244 242 233 238 233 228 230 227 220 213 197 187 187 190 188 185 186
266 266 263 265 265 264 262 254 253 258 256 256 258 259 258 256 256 254 253 254 256 255 249 241 240 233 225 227 223 217 210 208 198 191 193 196 196 200
267 264 267 262 261 266 264 262 258 254 253 252 252 255 256 257 262 264 265 259 254 254 257 257 256 246 235 230 218 220 215 213 210 205 200 196 185 179
262 260 263 264 258 257 263 265 261 264 259 256 250 253 258 266 267 263 263 263 252 247 243 251 254 251 248 241 237 227 214 210 207 203 194 182 178 176
259 256 257 263 264 261 258 263 265 267 262 261 257 261 264 263 263 262 263 265 271 237 258 260 251 245 248 241 238 231 219 202 197 192 185 178 182 185
258 261 258 260 260 255 256 259 263 261 265 260 262 263 263 260 258 260 260 261 265 261 262 261 259 242 241 238 230 229 220 204 199 187 176 183 189 190
256 257 264 260 266 260 257 260 259 262 256 260 260 257 256 256 255 257 258 261 263 266 268 259 249 233 225 229 219 227 206 199 196 186 180 186 194 198
267 265 267 266 262 260 260 258 260 259 258 262 266 252 255 254 259 265 268 268 261 260 248 264 242 228 204 196 203 197 193 193 188 188 189 195 201 202
297 287 279 277 270 264 264 265 263 260 259 254 257 257 259 257 258 259 262 264 268 265 249 249 239 215 201 183 179 174 184 191 185 188 196 200 207 208
28 347 309 289 280 272 270 264 258 257 259 259 256 257 257 256 257 258 262 263 264 256 245 234 215 188 181 166 163 168 179 188 203 199 196 201 203 204
38 43 54 53 15 297 289 287 278 264 258 256 260 261 259 257 259 264 264 261 244 236 222 186 165 163 167 158 154 174 181 183 188 201 217 228 216 214
36 38 49 54 59 64 67 75 87 126 142 132 122 115 108 98 175 201 180 170 162 148 146 151 153 161 175 175 173 185 189 190 201 209 217 223 236 246